Showing default

DMC 3-FM2, 40716

Orbit data source: Space-Track

DMC 3-FM2, 40716 is a payload satellite owned by DMCii (UK) in SSO that was launched on Fri, 10 Jul 2015 UTC via a PSLV-XL launch vehicle from the Sirharikota (SRI). Payloads include a variety of satellites, spacecraft, and rockets equipped with specific instruments for various scientific and technological missions. These include communications satellites like Starlink; space stations such as the ISS; scientific satellites like the Hubble; Earth observation satellites from companies like Planet Labs, Umbra, and HawkEye 360; GPS; miniature CubeSats for education and research; and military/defense satellites.

Loading next visibility...
DMC 3-FM2 details
Identifier
40716, 2015-032B
Orbit
SSO
Last TLE update8 hours ago
Origin
Flag of UKDMCii (UK)
ManufacturerSSTL (Astrium)
MissionOperational Commercial Imaging
Bus & MotorSSTL-300S1, Unknown motor
Mass447 kg wet, 435 kg dry
Launch date (UTC)
2015-07-10 (9 years ago)
Launch vehicle
PSLV-XL
Launch site
Sirharikota (SRI)
Object type
Payload
Rocket body
Debris
Shape & HBRHept Cyl + Cyl, 2.5 m
Radar Cross Section2.356 m², Large (>1 m²)

Expand to show TLE details & history

TLE from 8 hours ago
0 DMC 3-FM2
1 40716U 15032B   24361.20727770  .00002237  00000-0  27123-3 0  9999
2 40716  97.7275 235.4706 0008450  36.9892 323.1904 14.84547051510050
Epoch: 2024-12-26T04:58Z
Definitive object data (Epoch: 2024-12-26T04:58:28.793Z)
Latitude-0.00002°
Longitude65.66064°
Altitude613.31 km
Speed7.555 km/s
True Right ascension15h 41m 52s
True Declination0° 00' 00"
Sunlit
Object was in daylight at TLE epoch
Visualization TLE readout
Latitude-19.38706°
Longitude68.70583°
Altitude619.13 km
Speed7.55 km/s
Apparent Right ascension19h 01m 33s
Apparent Declination-49° 47' 11"
Sunlit
Object is in daylight
Visualization observer readout
Local Sidereal Time12:20:08
Azimuth128.832° SE
Elevation-35.381°
Doppler factor1
Orbital elements
Apogee altitude617.942 km
Perigee altitude606.128 km
Semi-major axis6,990.172 km
Eccentricity0.000845
Inclination97.7275°
RAAN235.4706°
Arg. of periapsis36.9892°
True anomaly323.13233°
Mean anomaly323.1904°
Eccentric anomaly323.16137°
Mean motion3.71374 °/min
BSTAR0.00027123
Orbital period96.94 mins
Loading maneuver chart data...
Loading historical data...
Loading historical data...
Loading historical data...
Loading historical data...
Loading historical data...
Loading historical data...
Loading historical data...

DMC 3-FM2 Visibility forecast

Observer location: undefined°, undefined

Span
Click to sort rows by Start time (UTC) header in descending order
Start Az.
Max El. time (UTC)
Max El. Az.
Max El.
End time (UTC)
End Az.
5 mins2024-12-26 14:50:31.928Z101.568° ESE2024-12-26 14:52:31.928Z69.289° E17.431°2024-12-26 14:55:31.928Z23.693° NE
6 mins2024-12-26 16:25:31.928Z201.556° SSW2024-12-26 16:28:31.928Z266.252° W30.847°2024-12-26 16:31:31.928Z324.865° NNW
6 mins2024-12-27 04:12:31.928Z39.073° NE2024-12-27 04:15:31.928Z109.934° ESE30.973°2024-12-27 04:18:31.928Z162.551° S
4 mins2024-12-27 05:49:31.928Z317.41° NNW2024-12-27 05:50:31.928Z300.422° NW17.3°2024-12-27 05:53:31.928Z253.182° W
|